Погода в Замьянах

Россия / Астраханская область     46°49′29″N   47°37′58″E
темп.,
°C
ветер,
м/с
пор.,
м/с
влажн.,
%
обл.,
%
осадки,
мм/ч
давл.,
гПа
погр.,
м
24 сентября, пт
пт2401:00+13с5688100 3.4 1010235
04:00+13св5892100 8.5 1010299
07:00+14с5794100 0.3 1008323
10:00+15ссз6786100 0.3 1008549
13:00+14сз8884100 0.0 1008540
16:00+13сз9118599 0.1 1009540
19:00+13зсз9128496 0.0 1011643
22:00+12зсз71280100 0.0 1011484
25 сентября, сб
сб2501:00+10зсз49795 0.0 1012259
04:00+10з35790 0.0 1013101
07:00+10з35820 0.0 101296
10:00+15зсз2364100 0.0 1013441
13:00+18зсз1245100 0.0 10121044
16:00+18сз3345100 0.0 10131060
19:00+15ссв2258100 0.0 101426
22:00+14ююв226099 0.0 101413
26 сентября, вс
вс2601:00+14сз3577100 0.0 1014215
04:00+13з598593 0.0 1015423
07:00+12зюз498496 0.0 1015305
10:00+16з78595 0.0 1015778
13:00+19з894535 0.0 10142079
16:00+18зюз81040100 0.0 10132402
19:00+16з584896 0.0 1013269
22:00+15юз81171100 0.1 1011981
27 сентября, пн
пн2701:00+15зюз91485100 3.2 10091002
04:00+14з914775 4.8 1008707
07:00+11з813775 0.0 1010710
10:00+14зсз9126216 0.0 10111298
13:00+14зсз101250100 0.1 10111947
16:00+14сз8125637 0.2 10121562
19:00+13зсз611665 0.0 1014637
22:00+11з49744 0.0 1015227
28 сентября, вт
вт2801:00+11зсз497813 0.0 1016186
04:00+10зсз47835 0.0 1017137
07:00+10ссз46865 0.0 1018127
10:00+13ссв45615 0.0 1020607
13:00+16с555159 0.0 10211315
16:00+15с654999 0.0 10211504
19:00+12с465684 0.0 1024378
22:00+11ссв365615 0.0 1025154